Change the Weather History Date:

Tuesday, November 27, 2012

  Actual Average (KRUG) Record (KRUG)
Temperature  
Mean Temperature 12 °F -  
Max Temperature 24 °F 26 °F 55 °F (1963)
Min Temperature 1 °F 10 °F -26 °F (1985)
Degree Days  
Heating Degree Days 52    
Moisture  
Dew Point 13 °F    
Average Humidity 95    
Maximum Humidity 100    
Minimum Humidity 86    
Precipitation  
Precipitation 0.35 in - - ()
Sea Level Pressure  
Sea Level Pressure 30.11 in    
Wind  
Wind Speed 9 mph (NNW)    
Max Wind Speed 15 mph    
Max Gust Speed -    
Visibility 9 miles    
Events Snow    
Averages and records for this station are not official NWS values.
T = Trace of Precipitation, MM = Missing Value Source: NWS Daily Summary

Daily Weather History Graph

Daily Weather History Graph

Search for Another Location

Airport or City:

Trip Planner

Search our weather history database for the weather conditions in past years. The results will help you decide how hot, cold, wet, or windy it might be!

Date:

Astronomy

Nov. 27, 2012 Rise Set
Actual Time 8:06 AM CST 4:46 PM CST
Civil Twilight 7:30 AM CST 5:22 PM CST
Nautical Twilight 6:50 AM CST 6:01 PM CST
Astronomical Twilight 6:12 AM CST 6:39 PM CST
Moon 4:19 PM CST (11/27) 7:10 AM CST (11/27)
Length of Visible Light 9h 52m
Length of Day
8h 40m
Waxing Gibbous, 99% of the Moon is Illuminated
Nov 27
Waxing Gibbous
Nov 28
Full
Dec 6
Last Quarter
Dec 13
New
Dec 19
First Quarter

Hourly Weather History & Observations

Time (CST) Temp. Windchill Dew Point Humidity Pressure Visibility Wind Dir Wind Speed Gust Speed Precip Events Conditions
12:15 AM 24.8 °F 14.6 °F 23.0 °F 93% 30.08 in 10.0 mi NW 10.4 mph - N/A   Overcast
12:35 AM 24.8 °F 13.4 °F 23.0 °F 93% 30.07 in 10.0 mi WNW 12.7 mph - N/A   Overcast
12:55 AM 24.8 °F 15.3 °F 23.0 °F 93% 30.07 in 10.0 mi WNW 9.2 mph - N/A   Overcast
1:15 AM 23.0 °F 13.9 °F 23.0 °F 100% 30.06 in 10.0 mi NNW 8.1 mph - N/A   Overcast
1:55 AM 23.0 °F 17.0 °F 23.0 °F 100% 30.05 in 10.0 mi NNW 4.6 mph - N/A   Overcast
2:15 AM 19.4 °F 14.3 °F 19.4 °F 100% 30.05 in 10.0 mi SW 3.5 mph - N/A   Overcast
2:35 AM 19.4 °F 6.6 °F 19.4 °F 100% 30.06 in 10.0 mi North 12.7 mph - N/A   Overcast
2:55 AM 19.4 °F 6.0 °F 19.4 °F 100% 30.07 in 10.0 mi North 13.8 mph - N/A   Overcast
3:15 AM 17.6 °F 4.3 °F 17.6 °F 100% 30.07 in 10.0 mi NNW 12.7 mph - N/A   Overcast
3:35 AM 17.6 °F 7.3 °F 17.6 °F 100% 30.06 in 10.0 mi North 8.1 mph - N/A   Overcast
3:55 AM 15.8 °F 3.4 °F 15.8 °F 100% 30.07 in 10.0 mi North 10.4 mph - N/A   Overcast
4:35 AM 15.8 °F 4.2 °F 15.8 °F 100% 30.06 in 10.0 mi North 9.2 mph - N/A   Overcast
4:55 AM 15.8 °F 2.7 °F 15.8 °F 100% 30.06 in 10.0 mi North 11.5 mph - N/A   Overcast
5:15 AM 15.8 °F 4.2 °F 14.0 °F 93% 30.07 in 10.0 mi North 9.2 mph - N/A   Overcast
6:15 AM 14.0 °F 2.9 °F 14.0 °F 100% 30.06 in 10.0 mi NNW 8.1 mph - N/A   Overcast
6:35 AM 14.0 °F 3.9 °F 14.0 °F 100% 30.05 in 10.0 mi NNW 6.9 mph - N/A   Overcast
6:55 AM 14.0 °F 5.1 °F 14.0 °F 100% 30.06 in 10.0 mi NNW 5.8 mph - N/A   Overcast
7:15 AM 14.0 °F 3.9 °F 14.0 °F 100% 30.06 in 10.0 mi NNW 6.9 mph - N/A   Overcast
7:35 AM 15.8 °F 6.1 °F 15.8 °F 100% 30.07 in 10.0 mi NNW 6.9 mph - N/A   Overcast
7:55 AM 15.8 °F 8.6 °F 15.8 °F 100% 30.06 in 10.0 mi North 4.6 mph - N/A   Overcast
8:15 AM 15.8 °F 3.4 °F 15.8 °F 100% 30.08 in 10.0 mi NNW 10.4 mph - N/A   Overcast
8:35 AM 14.0 °F 1.2 °F 14.0 °F 100% 30.08 in 10.0 mi North 10.4 mph - N/A Snow Light Snow
8:55 AM 14.0 °F 1.2 °F 12.2 °F 93% 30.08 in 9.0 mi North 10.4 mph - N/A Snow Light Snow
9:15 AM 14.0 °F 1.2 °F 12.2 °F 93% 30.10 in 3.0 mi North 10.4 mph - 0.01 in Snow Light Snow
9:35 AM 14.0 °F 5.1 °F 12.2 °F 93% 30.09 in 4.0 mi NNW 5.8 mph - 0.09 in Snow Light Snow
9:55 AM 14.0 °F 5.1 °F 12.2 °F 93% 30.09 in 9.0 mi NNW 5.8 mph - 0.10 in Snow Light Snow
10:15 AM 14.0 °F 2.0 °F 12.2 °F 93% 30.09 in 8.0 mi NNW 9.2 mph - N/A Snow Light Snow
10:35 AM 14.0 °F 3.9 °F 14.0 °F 100% 30.10 in 10.0 mi NNW 6.9 mph - N/A Snow Light Snow
10:55 AM 15.8 °F 7.2 °F 14.0 °F 93% 30.10 in 6.0 mi NNW 5.8 mph - 0.03 in Snow Light Snow
11:15 AM 15.8 °F 10.2 °F 14.0 °F 93% 30.10 in 2.5 mi NNE 3.5 mph - 0.04 in Snow Light Snow
11:35 AM 15.8 °F 10.2 °F 14.0 °F 93% 30.11 in 3.0 mi North 3.5 mph - 0.10 in Snow Light Snow
11:55 AM 15.8 °F 7.2 °F 15.8 °F 100% 30.11 in 5.0 mi NNE 5.8 mph - 0.13 in Snow Light Snow
12:15 PM 15.8 °F 5.1 °F 14.0 °F 93% 30.11 in 1.8 mi North 8.1 mph - 0.05 in Snow Light Snow
12:35 PM 14.0 °F 1.2 °F 14.0 °F 100% 30.10 in 6.0 mi North 10.4 mph - 0.08 in Snow Light Snow
12:55 PM 14.0 °F -0.8 °F 10.4 °F 86% 30.11 in 10.0 mi North 13.8 mph - 0.09 in Snow Light Snow
1:15 PM 12.2 °F -1.8 °F 10.4 °F 92% 30.11 in 10.0 mi NNW 11.5 mph - N/A   Scattered Clouds
1:35 PM 14.0 °F -0.2 °F 10.4 °F 86% 30.11 in 10.0 mi NNW 12.7 mph - N/A   Overcast
2:15 PM 14.0 °F 0.5 °F 10.4 °F 86% 30.10 in 10.0 mi NNW 11.5 mph - N/A   Overcast
2:35 PM 14.0 °F -0.2 °F 10.4 °F 86% 30.10 in 10.0 mi NNW 12.7 mph - N/A   Overcast
2:55 PM 15.8 °F 1.4 °F 12.2 °F 86% 30.10 in 10.0 mi NNW 13.8 mph - N/A Snow Light Snow
3:15 PM 14.0 °F -1.4 °F 12.2 °F 93% 30.11 in 10.0 mi NNW 15.0 mph - N/A Snow Light Snow
3:35 PM 14.0 °F -0.2 °F 10.4 °F 86% 30.12 in 10.0 mi NNW 12.7 mph - N/A   Partly Cloudy
3:55 PM 14.0 °F 2.0 °F 10.4 °F 86% 30.12 in 10.0 mi North 9.2 mph - N/A   Mostly Cloudy
4:15 PM 10.4 °F -1.5 °F 8.6 °F 92% 30.13 in 10.0 mi North 8.1 mph - N/A   Scattered Clouds
4:35 PM 12.2 °F 0.7 °F 10.4 °F 92% 30.13 in 10.0 mi NNW 8.1 mph - N/A   Mostly Cloudy
4:55 PM 14.0 °F 2.0 °F 12.2 °F 93% 30.14 in 10.0 mi NW 9.2 mph - N/A   Overcast
5:15 PM 15.8 °F 3.4 °F 14.0 °F 93% 30.14 in 10.0 mi NW 10.4 mph - N/A Snow Light Snow
5:55 PM 14.0 °F -0.2 °F 12.2 °F 93% 30.15 in 10.0 mi NNW 12.7 mph - N/A   Overcast
6:15 PM 14.0 °F 0.5 °F 12.2 °F 93% 30.15 in 10.0 mi NW 11.5 mph - N/A   Overcast
6:35 PM 14.0 °F -0.8 °F 14.0 °F 100% 30.16 in 10.0 mi NW 13.8 mph - N/A   Overcast
6:55 PM 14.0 °F 1.2 °F 14.0 °F 100% 30.16 in 10.0 mi WNW 10.4 mph - N/A   Overcast
7:15 PM 14.0 °F 1.2 °F 14.0 °F 100% 30.16 in 10.0 mi WNW 10.4 mph - N/A   Overcast
7:35 PM 14.0 °F 3.9 °F 14.0 °F 100% 30.16 in 10.0 mi NW 6.9 mph - N/A   Overcast
7:55 PM 14.0 °F 2.0 °F 12.2 °F 93% 30.17 in 10.0 mi NW 9.2 mph - N/A   Overcast
8:15 PM 14.0 °F 2.0 °F 10.4 °F 86% 30.17 in 10.0 mi NW 9.2 mph - N/A   Overcast
8:35 PM 14.0 °F 2.0 °F 12.2 °F 93% 30.18 in 10.0 mi WNW 9.2 mph - N/A   Overcast
8:55 PM 12.2 °F 1.7 °F 10.4 °F 92% 30.18 in 10.0 mi WNW 6.9 mph - N/A   Mostly Cloudy
9:15 PM 10.4 °F 2.2 °F 8.6 °F 92% 30.17 in 10.0 mi West 4.6 mph - N/A   Partly Cloudy
9:35 PM 8.6 °F 0.1 °F 8.6 °F 100% 30.18 in 10.0 mi WSW 4.6 mph - N/A   Partly Cloudy
9:55 PM 6.8 °F -2.0 °F 6.8 °F 100% 30.18 in 10.0 mi WSW 4.6 mph - N/A   Partly Cloudy
10:15 PM 5.0 °F -2.1 °F 5.0 °F 100% 30.17 in 10.0 mi WSW 3.5 mph - N/A   Clear
10:55 PM 1.4 °F -6.2 °F 1.4 °F 100% 30.18 in 10.0 mi SW 3.5 mph - N/A   Mostly Cloudy
11:15 PM 1.4 °F -9.9 °F 1.4 °F 100% 30.18 in 10.0 mi South 5.8 mph - N/A   Partly Cloudy
11:55 PM 1.4 °F -11.3 °F 1.4 °F 100% 30.18 in 10.0 mi SSW 6.9 mph - N/A   Clear